View from above orbital plane
|
View from above satellite
|
Ground track
|
The orbit data is extracted from the following two-line orbital elements,
1 45191C 20012P 21016.98782232 .00005644 00000-0 37817-3 0 164
2 45191 53.0552 195.9264 0002290 45.0855 4.1412 15.06391724 19
Epoch (UTC): | 16 January 2021 23:42:27 |
Eccentricity: | 0.0002290 |
inclination: | 53.0552° |
perigee height: | 545 km |
apogee height: | 549 km |
right ascension of ascending node: | 195.9264° |
argument of perigee: | 45.0855° |
revolutions per day: | 15.06391724 |
mean anomaly at epoch: | 4.1412° |
orbit number at epoch: | 1 |
The dashed part of the orbit path shows where the satellite is in the earth's shadow,
|
|